GW7215 Weather Reports


Display with metric or nautical units.
time (UTC)temp
F
wind
direction
speed
MPH
gust
MPH
rain 1hr
in
rain 24hr
in
rain mn
in
humidity
%
barometer
mb
20260906233050 96 82 5.0 12.0 0.00 0.00 0.00 48 1014.0
20260906231555 97 111 3.0 11.0 0.00 0.00 0.00 47 1014.1
20260906230055 97 71 7.0 17.0 0.00 0.00 0.00 47 1014.1
20260906224548 98 65 8.0 16.0 0.00 0.00 0.00 46 1014.0
20260906223057 98 130 7.0 13.0 0.00 0.00 0.00 46 1014.0
20260906221546 99 74 6.0 13.0 0.00 0.00 0.00 45 1014.0
20260906220051 99 96 5.0 10.0 0.00 0.00 0.00 44 1014.1
20260906214604 98 77 7.0 12.0 0.00 0.00 0.00 46 1014.3
20260906213049 99 44 8.0 15.0 0.00 0.00 0.00 44 1014.4
20260906211551 98 139 3.0 10.0 0.00 0.00 0.00 46 1014.5
20260906210111 99 344 6.0 14.0 0.00 0.00 0.00 44 1014.7
20260906204553 98 78 4.0 11.0 0.00 0.00 0.00 46 1014.8
20260906203055 97 169 3.0 13.0 0.00 0.00 0.00 46 1014.9
20260906201555 97 79 4.0 11.0 0.00 0.00 0.00 47 1015.1
20260906200044 96 130 3.0 13.0 0.00 0.00 0.00 48 1015.3
20260906194549 96 59 4.0 10.0 0.00 0.00 0.00 49 1015.4
20260906193050 97 86 7.0 12.0 0.00 0.00 0.00 49 1015.4
20260906191601 97 140 8.0 17.0 0.00 0.00 0.00 49 1015.7
20260906190054 97 42 5.0 15.0 0.00 0.00 0.00 49 1016.0
20260906184552 95 76 4.0 14.0 0.00 0.00 0.00 52 1016.2
20260906183048 96 47 5.0 14.0 0.00 0.00 0.00 51 1016.4
20260906181549 96 91 5.0 12.0 0.00 0.00 0.00 50 1016.7
20260906180112 96 111 4.0 11.0 0.00 0.00 0.00 51 1016.6
20260906174558 95 10 4.0 12.0 0.00 0.00 0.00 53 1016.9
20260906173046 95 38 5.0 11.0 0.00 0.00 0.00 54 1017.1
20260906171544 94 49 6.0 11.0 0.00 0.00 0.00 55 1017.4
20260906170053 93 69 6.0 12.0 0.00 0.00 0.00 59 1017.5
20260906164549 92 197 4.0 10.0 0.00 0.00 0.00 59 1017.6
20260906163055 92 106 4.0 10.0 0.00 0.00 0.00 61 1017.7
20260906161543 91 64 3.0 11.0 0.00 0.00 0.00 65 1017.7
20260906160053 89 52 2.0 9.0 0.00 0.00 0.00 68 1017.8
20260906154552 88 53 2.0 7.0 0.00 0.00 0.00 70 1017.6
20260906153110 87 121 2.0 7.0 0.00 0.00 0.00 72 1017.7
20260906151554 86 142 2.0 5.0 0.00 0.00 0.00 74 1017.6
20260906150050 85 146 3.0 8.0 0.00 0.00 0.00 76 1017.5
20260906144552 84 132 3.0 7.0 0.00 0.00 0.00 78 1017.7
20260906143049 83 142 4.0 8.0 0.00 0.00 0.00 79 1017.5
20260906141554 82 119 2.0 6.0 0.00 0.00 0.00 81 1017.5
20260906140048 81 81 2.0 6.0 0.00 0.00 0.00 83 1017.5
20260906134607 80 104 1.0 6.0 0.00 0.00 0.00 85 1017.5
20260906133054 79 100 2.0 6.0 0.00 0.00 0.00 86 1017.2
20260906131546 78 75 2.0 6.0 0.00 0.00 0.00 88 1017.3
20260906130048 77 103 0.0 3.0 0.00 0.00 0.00 88 1017.1
20260906124553 76 0 0.0 0.0 0.00 0.00 0.00 88 1017.0
20260906123056 75 0 0.0 2.0 0.00 0.00 0.00 88 1016.8
20260906121546 75 79 0.0 3.0 0.00 0.00 0.00 87 1016.8
20260906120052 75 0 0.0 0.0 0.00 0.00 0.00 87 1016.7
20260906114552 75 0 0.0 0.0 0.00 0.00 0.00 86 1016.6
20260906113049 75 0 0.0 0.0 0.00 0.00 0.00 86 1016.8
20260906111550 76 0 0.0 0.0 0.00 0.00 0.00 85 1016.4
20260906110053 76 0 0.0 0.0 0.00 0.00 0.00 85 1016.3
20260906104553 76 0 0.0 0.0 0.00 0.00 0.00 85 1016.3
20260906103101 76 0 0.0 0.0 0.00 0.00 0.00 85 1016.3
20260906101545 77 86 0.0 3.0 0.00 0.00 0.00 85 1016.0
20260906100100 77 0 0.0 2.0 0.00 0.00 0.00 84 1015.8
20260906094552 77 0 1.0 3.0 0.00 0.00 0.00 83 1015.8
20260906093052 77 90 0.0 3.0 0.00 0.00 0.00 83 1015.5
20260906091545 78 0 0.0 3.0 0.00 0.00 0.00 83 1015.4
20260906090111 78 0 0.0 3.0 0.00 0.00 0.00 83 1015.6
20260906084549 78 0 0.0 0.0 0.00 0.00 0.00 82 1015.5
20260906083051 78 0 0.0 4.0 0.00 0.00 0.00 82 1015.5
20260906081553 78 74 1.0 3.0 0.00 0.00 0.00 81 1015.8
20260906080046 79 0 0.0 0.0 0.00 0.00 0.00 80 1015.7
20260906074605 79 0 0.0 0.0 0.00 0.00 0.00 79 1015.6
20260906073105 79 169 1.0 4.0 0.00 0.00 0.00 80 1015.6
20260906071548 80 146 2.0 6.0 0.00 0.00 0.00 79 1016.0
20260906070045 80 149 3.0 7.0 0.00 0.00 0.00 78 1016.0
20260906064551 81 146 4.0 8.0 0.00 0.00 0.00 78 1016.2
20260906063051 81 102 4.0 9.0 0.00 0.00 0.00 77 1016.3
20260906061550 81 138 5.0 9.0 0.00 0.00 0.00 77 1016.4
20260906060044 81 132 3.0 6.0 0.00 0.00 0.00 77 1016.4
20260906054550 82 119 1.0 5.0 0.00 0.00 0.00 77 1016.4
20260906053049 82 107 2.0 6.0 0.00 0.00 0.00 77 1016.2
20260906051558 82 0 0.0 3.0 0.00 0.00 0.00 76 1016.1
20260906050107 82 164 1.0 3.0 0.00 0.00 0.00 76 1016.1
20260906044553 83 90 0.0 3.0 0.00 0.00 0.00 76 1016.2
20260906043053 83 0 0.0 5.0 0.00 0.00 0.00 75 1016.1
20260906041547 84 100 1.0 4.0 0.00 0.00 0.00 74 1016.1
20260906040054 84 111 0.0 3.0 0.00 0.00 0.00 73 1015.9
20260906034608 84 160 2.0 6.0 0.00 0.00 0.00 73 1015.9
20260906033048 85 0 1.0 4.0 0.00 0.00 0.00 73 1016.1
20260906031547 85 131 1.0 4.0 0.00 0.00 0.00 73 1016.1
20260906030052 85 104 2.0 8.0 0.00 0.00 0.00 72 1016.1
20260906024549 85 107 2.0 6.0 0.00 0.00 0.00 72 1016.1
20260906023047 86 90 2.0 8.0 0.00 0.00 0.00 71 1015.7
20260906021543 86 77 2.0 7.0 0.00 0.00 0.00 70 1015.5
20260906020105 87 92 4.0 9.0 0.00 0.00 0.00 69 1015.3
20260906014549 87 119 3.0 10.0 0.00 0.00 0.00 68 1015.1
20260906013102 87 76 4.0 10.0 0.00 0.00 0.00 67 1014.9
20260906011549 88 132 3.0 13.0 0.00 0.00 0.00 66 1014.7
20260906010052 89 119 6.0 13.0 0.00 0.00 0.00 64 1014.8
20260906004545 90 90 7.0 13.0 0.00 0.00 0.00 60 1014.7
20260906003048 94 137 6.0 16.0 0.00 0.00 0.00 54 1014.7
20260906001548 95 70 2.0 9.0 0.00 0.00 0.00 48 1014.3
20260906000055 96 101 2.0 9.0 0.00 0.00 0.00 47 1014.2
20260905234608 96 94 3.0 12.0 0.00 0.00 0.00 47 1014.1